Regional Weather Roundup
Issued by NWS Charleston, SC

Current Version | Previous Version | Text Only | Print | Product List | Glossary Off
Versions: 1 2 3 4 5 6 7 8 9 10 11 12 13 14 15 16 17 18 19 20 21 22 23 24 25 26 27 28 29 30 31 32 33 34 35 36 37 38 39 40 41 42 43 44 45 46 47 48 49 50
000 ASUS42 KCHS 260113 RWRCHS REGIONAL WEATHER ROUNDUP NATIONAL WEATHER SERVICE CHARLESTON SC 900 PM EDT SUN SEP 25 2016 NOTE: "FAIR" INDICATES FEW OR NO CLOUDS BELOW 12,000 FEET WITH NO SIGNIFICANT WEATHER AND/OR OBSTRUCTIONS TO VISIBILITY. NOT ALL STATIONS ARE QUALITY CONTROLLED. USE DATA WITH CAUTION... ESPECIALLY DEWPOINT OBSERVATIONS. SCZ027-030-031-034>040-042>050-260200- ...SOUTHEAST SOUTH CAROLINA... CITY SKY/WX TMP DP RH WIND PRES REMARKS N CHARLESTON PTCLDY 77 72 84 E6 30.07R WATERFRONT PRK N/A 80 75 84 E8 30.04R MOUNT PLEASANT FAIR 75 73 94 CALM 30.08R JOHNS ISLAND FAIR 79 75 89 NE8 30.07R PINOPOLIS N/A 79 73 83 VRB3 30.00R MONCKS CORNER FAIR 73 72 94 E3 30.08R SUMMERVILLE FAIR 77 73 88 E3 30.08R BEAUFORT MCAS MOCLDY 80 74 81 E7 30.06R BEAUFORT ARPT FAIR 79 73 83 E7 30.05R HILTON HEAD IS MOCLDY 81 75 83 VRB6G13 30.06R WALTERBORO CLOUDY 79 79 100 E5 30.08R ALLENDALE FAIR 75 72 88 CALM 30.06R ...SOUTHERN MIDLANDS AND PEE DEE... CITY SKY/WX TMP DP RH WIND PRES REMARKS GEORGETOWN MOCLDY 77 72 83 E6 30.10R KINGSTREE FAIR 73 70 88 E3 30.09R ORANGEBURG CLEAR 76 70 82 CALM 30.08R BARNWELL NOT AVBL AIKEN FAIR 77 66 69 SE6 30.11R MANNING FAIR 73 52 46 SE3 30.09R COLUMBIA CLEAR 80 69 69 S3 30.06R SUMTER CLEAR 78 71 79 S1 30.06R FLORENCE CLEAR 77 71 82 SE9 30.09R MYRTLE BEACH CLOUDY 79 66 65 E9 30.11R N MYRTLE BEACH CLOUDY 78 70 76 E14G21 30.10R $$ GAZ063-065-086>088-099>101-113>116-118-119-134>141-150-260200- ...SOUTHEAST GEORGIA... CITY SKY/WX TMP DP RH WIND PRES REMARKS SAVANNAH ARPT PTCLDY 78 71 79 E7 30.05R HUNTER AAF PTCLDY 78 78 100 NE3 30.02R FORT STEWART PTCLDY 75 70 83 CALM 30.03R STATESBORO PTCLDY 78 72 82 CALM 30.06R SYLVANIA NOT AVBL CLAXTON FAIR 73 73 97 CALM 30.06R ...CSRA...CENTRAL AND FAR SOUTHEAST GEORGIA... CITY SKY/WX TMP DP RH WIND PRES REMARKS THOMSON CLEAR 81 69 67 CALM 30.11R AUGUSTA-BUSH CLEAR 74 69 85 SE6 30.05R AUGUSTA-DANIEL CLEAR 81 66 60 SE5 30.07R SWAINSBORO FAIR 77 66 69 E5 30.07R VIDALIA CLEAR 77 72 83 E3 30.06R EASTMAN MOCLDY 84 56 37 E7 30.07R HAZLEHURST FAIR 81 70 68 SW6 30.04R ALMA MOCLDY 79 70 74 E6 30.04R WAYCROSS PTCLDY 81 74 79 E7 30.04R JESUP FAIR 77 75 94 CALM 30.05R BAXLEY FAIR 79 73 83 SE3 30.05R BRUNSWICK PTCLDY 79 77 94 NE5 30.05R SAINT SIMONS PTCLDY 81 72 74 NE10 30.03R $$ SCZ027-028-034-036>038-045-046-048>050-GAZ119-141-260200- ...LAKE AND SUPPLEMENTAL COASTAL OBSERVATIONS... STATION/POSITION TIME TEMP WIND PRES WAVE SWELL AIR SEA DIR/SP/G HT/PER HT/PER/DIR (UTC) (F) (DEG/KT/KT) (MB) (FT/S) (FT/S/D) WINYAH BAY NOT AVBL LAKE MURRAY 0020 82 110/ 1/ 4 1017.3 ACE BASIN NERRS 2345 79 60/ 2 1018.0 FORT PULASKI 0042 81 82 60/ 14/ 17 1017.8R SAPELO ISLAND 0000 79 60/ 6 1017.0 $$ ANZ835-935-AMZ111-154-330-350-352-354-370-450-454-472-260200- ...C-MAN AND BUOY OBSERVATIONS... STATION/POSITION TIME TEMP WIND PRES WAVE SWELL AIR SEA DIR/SP/G HT/PER HT/PER/DIR (UTC) (F) (DEG/KT/KT) (MB) (FT/S) (FT/S/D) BUOY 41004 0050 81 82 70/ 16/ 19 1017.0R 5/10 2/ 90/10 BUOY 41008 0050 81 82 80/ 16/ 19 1016.2R 4/ 5 2/ 80/10 FOLLY BEACH CMAN 0100 80 80/ 13/ 16 1018.2R CAPERS NEARSHORE 0008 80 81 90/ 14/ 17 1017.4R FRIPP NEARSHORE 0008 80 81 80/ 16/ 21 1017.2R STATION/POSITION TIME TEMP WIND PRES WAVE SWELL AIR SEA DIR/SP/G HT/PER HT/PER/DIR (UTC) (F) (DEG/KT/KT) (MB) (FT/S) (FT/S/D) 5E ST. MARYS GA 0001 83 N/A 4/ 5 2/100/12 FRYING PAN BUOY 0050 79 82 60/ 17/ 21 1018.6R 5/ 5 2/110/ 9 BUOY 41025 0050 74 85 40/ 16/ 19 1020.0R 4/ 8 2/ 40/ 8 CAPE LOOKOUT NC 0100 74 50/ 17/ 20 1020.4R BUOY 41002 0050 82 83 50/ 16/ 17 1017.0R 3/10 2/ 80/10 BUOY 41010 NOT AVBL ST AUGUSTINE FL 0100 81 85 30/ 11/ 12 1017.3R $$

USA.gov is the U.S. government's official web portal to all federal, state and local government web resources and services.